Regional Weather Roundup
Issued by NWS

Home | Current Version | Previous Version | Graphics & Text | Print | Product List | Glossary On
Versions: 1 2 3 4 5 6 7 8 9 10 11 12 13 14 15 16 17 18 19 20 21 22 23 24 25 26 27
000
ASUS45 KTFX 252010
RWRMT
MONTANA REGIONAL WEATHER ROUNDUP
NATIONAL WEATHER SERVICE GREAT FALLS MT
200 PM MDT WED MAY 25 2016

NOTE: "FAIR" INDICATES FEW OR NO CLOUDS BELOW 12000 FEET WITH NO
SIGNIFICANT WEATHER AND/OR OBSTRUCTIONS TO VISIBILITY.

MTZ001>007-043-252100-
WEST OF THE DIVIDE

CITY           SKY/WX    TMP DP  RH WIND       PRES   REMARKS
KALISPELL      MOSUNNY   62  46  55 SE8       29.96F
MISSOULA       SUNNY     62  43  49 CALM      29.99F
BUTTE          MOSUNNY   57  30  35 NW15G24   30.01S
MULLAN PASS    CLOUDY    50  43  77 VRB3      30.08R
ANACONDA         N/A     57  32  38 SW13G21   29.99F
DEER LODGE       N/A     59  41  51 S6        29.99F
EUREKA           N/A     70  46  43 S6        29.92F
HAMILTON         N/A     63  36  36 SW6       30.00F
LIBBY            N/A     66  43  42 CALM      29.95S
$$

MTZ008-052>055-252100-
SOUTHWEST MONTANA

CITY           SKY/WX    TMP DP  RH WIND       PRES   REMARKS
BOZEMAN        MOSUNNY   62  35  36 W8        29.95F
DILLON         MOSUNNY   59  32  36 CALM      29.97F
ENNIS          MOSUNNY   59  30  33 NW10G18   30.02S
$$

MTZ009-010-012-014-046-048-049-054-252100-
EAST SLOPES AND CENTRAL MONTANA

CITY           SKY/WX    TMP DP  RH WIND       PRES   REMARKS
CUT BANK       MOSUNNY   67  40  37 N17G28    29.85S
GREAT FALLS    CLOUDY    68  39  34 W17       29.84F
MALMSTROM AFB  PTSUNNY   64  42  45 SW13G23   29.84F
HELENA         PTSUNNY   65  38  36 SW15G25   29.93S
CHOTEAU          N/A     61  41  48 E5        29.87S
$$

MTZ011-013-016-021-045-047-050-051-252100-
NORTH CENTRAL MONTANA

CITY           SKY/WX    TMP DP  RH WIND       PRES   REMARKS
LEWISTOWN      PTSUNNY   61  38  42 W5        29.88F
N BAR RANCH    CLOUDY    52  39  62 SW16G24   29.92R
CHINOOK          N/A     64  45  48 NW3       29.84S
$$

MTZ017>020-022>027-061-062-252100-
NORTHEAST MONTANA

CITY           SKY/WX    TMP DP  RH WIND       PRES   REMARKS
GLASGOW        CLOUDY    63  44  50 W9        29.84F
JORDAN           N/A     64  42  44 CALM      29.84F
SIDNEY         PTSUNNY   57  46  67 N15       29.85F
WOLF POINT     CLOUDY    61  48  62 SE7       29.86F
POPLAR           N/A     57  46  67 N7        29.87F
$$

MTZ028>42-056>058-252100-
SOUTHCENTRAL AND SOUTHEAST MONTANA

CITY           SKY/WX    TMP DP  RH WIND       PRES   REMARKS
BAKER          CLOUDY    60  44  55 NW12      29.88F
BILLINGS       MOSUNNY   65  40  39 CALM      29.88F
LIVINGSTON     PTSUNNY   64  33  31 W18       29.92F
MILES CITY     LGT RAIN  62  44  51 N8        29.86S
FORSYTH          N/A     63  43  48 SW13      29.85S
$$

REGIONAL REPORTS...DAKOTAS

CITY           SKY/WX    TMP DP  RH WIND       PRES   REMARKS
WILLISTON      CLOUDY    54  49  83 NW16G26   29.84S
MINOT          CLOUDY    67  56  67 E9        29.76F
DICKINSON      CLOUDY    54  48  80 W20       29.80S
BEACH          PTSUNNY   55  48  76 NW16G23   29.90S
CROSBY         LGT RAIN  54  54 100 N13       29.84F VSB 1
WATFORD CITY   CLOUDY    52  50  93 NW18      29.83R
BISMARCK       MOSUNNY   68  58  70 SE6       29.76F
GRAND FORKS    LGT RAIN  62  59  90 N12       29.76F
FARGO          LGT RAIN  64  61  90 SE9       29.69F
BUFFALO SD       N/A     61  43  51 NW21G26   29.80S
RAPID CITY     LGT RAIN  57  47  69 N24G37    29.86R
$$

REGIONAL REPORTS...WYOMING/IDAHO/WASHINGTON

CITY           SKY/WX    TMP DP  RH WIND       PRES   REMARKS
GILLETTE       MOSUNNY   60  42  51 VRB5      29.92F
SHERIDAN       PTSUNNY   56  49  77 W10       29.94S
BUFFALO WY       N/A     55  40  56 CALM      29.95S
CODY           CLOUDY    55  41  58 N5        29.93S
YELLOWSTONE LA   N/A     44  36  73 MISG      30.06S
IDAHO FALLS    TSTM      51  43  74 N6        30.02S
SALMON         MOSUNNY   61  36  39 CALM      29.98F
BOISE          MOSUNNY   68  38  33 NW17G25   29.99F
SPOKANE        PTSUNNY   67  45  45 SW12G22   30.01F
$$

REGIONAL REPORTS...ALBERTA

CITY           SKY/WX    TMP DP  RH WIND       PRES   REMARKS
EDMONTON       SUNNY     70  45  40 E3        29.83F
CALGARY        CLOUDY    64  41  42 VRB2      29.87F
LETHBRIDGE     MOSUNNY   63  39  42 VRB5      29.87S
MEDICINE HAT   PTSUNNY   61  45  55 N8        29.86F
WATERTON GATE    N/A     59  43  55 SW15G22     N/A
CARDSTON         N/A     64  43  45 N10G17      N/A
ONEFOUR          N/A     59  48  67 E10         N/A
$$

REGIONAL REPORTS...SASKATCHEWAN

CITY           SKY/WX    TMP DP  RH WIND       PRES   REMARKS
SWIFT CURRENT  MOSUNNY   59  48  67 N7        29.86F
REGINA           N/A     54  48  82 NW12      29.88F
SASKATOON      PTSUNNY   64  50  59 N8        29.89F
CYPRESS HILLS    N/A     54  41  62 N6          N/A
VAL MARIE        N/A     61  43  51 SW2         N/A
ROCKGLEN         N/A     57  43  58 NE5         N/A
$$




USA.gov is the U.S. government's official web portal to all federal, state and local government web resources and services.